Voltar ao catálogo

ATLAS 5 CENTAUR DEB

LostHEO
NORAD 44013·DEBRIS·🇺🇸 United States

Lançado Sep 17, 2014 de Cape Canaveral Space Force Station

Loading…

Próximas Passagens (próximas 24 horas)

TLE

ObsoletoSource: Space-Track

Época: Oct 25, 2023, 02:31 UTC

1 44013U 14055BU  23298.10520161 -.00000147  00000-0  00000+0 0  9999
2 44013  20.6566 286.2341 4364217 267.3412  43.4632  1.67669481 30909

Acompanhe ATLAS 5 CENTAUR DEB em tempo real com AllMySat

Download on the App Store